Prescott, AZ

11:04 AM MST on December 02, 2016 (GMT -0700)
Love

Weather History for KPRC - August, 2014

Change the Weather History Date:

Monday, August 25, 2014

  Actual Average Record
Temperature  
Mean Temperature 70 °F 73 °F  
Max Temperature 79 °F 86 °F 95 °F (2011)
Min Temperature 60 °F 59 °F 49 °F (2002)
Degree Days  
Heating Degree Days 0    
Month to date heating degree days 3  
Since 1 July heating degree days 3  
Cooling Degree Days 5    
Month to date cooling degree days 179  
Year to date cooling degree days 859  
Growing Degree Days 20 (Base 50)    
Moisture  
Dew Point 52 °F    
Average Humidity 53    
Maximum Humidity 72    
Minimum Humidity 40    
Precipitation  
Precipitation T in 0.08 in 1.23 in (1971)
Month to date precipitation 3.65 2.17  
Year to date precipitation 6.45 9.21  
Sea Level Pressure  
Sea Level Pressure 29.92 in    
Wind  
Wind Speed 6 mph (SSW)    
Max Wind Speed 16 mph    
Max Gust Speed 21 mph    
Visibility 10 miles    
Events Thunderstorm    
T = Trace of Precipitation, MM = Missing Value Source: NWS Daily Summary

Daily Weather History Graph

Daily Weather History Graph

Search for Another Location

Airport or City:

Trip Planner

Search our weather history database for the weather conditions in past years. The results will help you decide how hot, cold, wet, or windy it might be!

Date:

Astronomy

Aug. 25, 2014 Rise Set
Actual Time 5:57 AM MST 7:05 PM MST
Civil Twilight 5:31 AM MST 7:31 PM MST
Nautical Twilight 5:00 AM MST 8:02 PM MST
Astronomical Twilight 4:28 AM MST 8:34 PM MST
Moon 6:04 AM MST (8/25) 7:00 PM MST (8/25)
Length of Visible Light 13h 59m
Length of Day
13h 07m
New Moon, 0% of the Moon is Illuminated
Aug 25
New Moon
Sep 2
First Quarter
Sep 8
Full
Sep 15
Last Quarter
Sep 23
New

Hourly Weather History & Observations

Time (MST) Temp. Dew Point Humidity Pressure Visibility Wind Dir Wind Speed Gust Speed Precip Events Conditions
12:53 AM 62.1 °F 50.0 °F 65% 29.86 in 10.0 mi SSE 4.6 mph - N/A   Clear
2:53 AM 64.9 °F 46.9 °F 52% 29.84 in 10.0 mi SSE 5.8 mph - N/A   Clear
3:53 AM 66.9 °F 48.9 °F 52% 29.84 in 10.0 mi SSW 4.6 mph - N/A   Clear
5:53 AM 64.0 °F 48.9 °F 58% 29.88 in 10.0 mi SSE 6.9 mph - N/A   Clear
7:53 AM 68.0 °F 50.0 °F 52% 29.92 in 10.0 mi SSE 6.9 mph - N/A   Clear
8:53 AM 72.0 °F 48.0 °F 43% 29.92 in 10.0 mi Variable 6.9 mph - N/A   Clear
9:53 AM 73.0 °F 52.0 °F 48% 29.94 in 10.0 mi Variable 6.9 mph - N/A   Clear
10:53 AM 75.9 °F 51.1 °F 42% 29.93 in 10.0 mi Variable 6.9 mph - N/A   Partly Cloudy
11:53 AM 77.0 °F 52.0 °F 42% 29.95 in 10.0 mi SSW 9.2 mph - N/A   Partly Cloudy
12:53 PM 78.1 °F 55.9 °F 46% 29.94 in 10.0 mi South 12.7 mph 19.6 mph N/A   Scattered Clouds
1:53 PM 78.1 °F 53.1 °F 42% 29.91 in 10.0 mi SSW 12.7 mph 19.6 mph N/A   Scattered Clouds
2:53 PM 75.9 °F 55.0 °F 48% 29.89 in 10.0 mi SSW 8.1 mph - N/A   Scattered Clouds
3:53 PM 73.0 °F 53.1 °F 49% 29.89 in 10.0 mi South 4.6 mph - N/A   Scattered Clouds
4:53 PM 70.0 °F 59.0 °F 68% 29.92 in 10.0 mi WNW 9.2 mph - N/A   Mostly Cloudy
5:34 PM 69.8 °F 57.2 °F 64% 30.14 in 10.0 mi West 10.4 mph - N/A Thunderstorm Thunderstorm
5:53 PM 69.8 °F 57.2 °F 64% 29.91 in 10.0 mi SW 3.5 mph - N/A Thunderstorm Thunderstorm
8:53 PM 68.0 °F 55.0 °F 63% 29.93 in 10.0 mi SSW 5.8 mph - N/A   Partly Cloudy
9:53 PM 68.0 °F 51.1 °F 55% 29.94 in 10.0 mi South 5.8 mph - N/A   Clear
10:53 PM 66.9 °F 52.0 °F 59% 29.92 in 10.0 mi South 5.8 mph - N/A   Partly Cloudy
11:53 PM 68.0 °F 52.0 °F 56% 29.92 in 10.0 mi SSW 5.8 mph - N/A   Overcast